Regional Weather Roundup
Issued by NWS

Home | Current Version | Previous Version | Graphics & Text | Print | Product List | Glossary On
Versions: 1 2 3 4 5 6 7 8 9 10 11 12 13 14 15 16 17 18 19 20 21 22 23 24 25 26 27
000
ASUS45 KBOU 281507
RWRCO

WEATHER ROUNDUP FOR COLORADO
NATIONAL WEATHER SERVICE DENVER/BOULDER CO
900 AM MDT THU APR 28 2016

NOTE: "FAIR" INDICATES FEW OR NO CLOUDS BELOW 12000 FEET WITH NO
SIGNIFICANT WEATHER AND/OR OBSTRUCTIONS TO VISIBILITY.

COZ001>005-013-030-031-281600-
...NORTHWEST COLORADO...

CITY           SKY/WX    TMP DP  RH WIND       PRES   REMARKS
CRAIG          CLOUDY    37  31  78 W7        29.79R
HAYDEN         FAIR      37  28  70 SE6       29.77R
MEEKER         LGT RAIN  39  35  86 NE3       29.75F
MOUNT WERNER   NOT AVBL
STEAMBOAT SPGS CLOUDY    33  28  82 N3        29.77F
WALDEN         PTSUNNY   30  27  86 NW5       29.86F WCI  25
$$

COZ006>008-011-281600-
...WEST CENTRAL VALLEYS...

CITY           SKY/WX    TMP DP  RH WIND       PRES   REMARKS
GRAND JUNCTION LGT RAIN  40  38  93 N6        29.76S
MONTROSE       FAIR      43  38  82 CALM      29.79R
EAGLE          PTSUNNY   39  34  81 CALM      29.80F
RIFLE          LGT RAIN  43  38  82 E6        29.76R
DELTA          NOT AVBL
NUCLA          NOT AVBL
$$

COZ017>023-064>068-281600-
...SOUTHWEST COLORADO...

CITY           SKY/WX    TMP DP  RH WIND       PRES   REMARKS
DURANGO        CLOUDY    47  29  49 SE10G26   29.81S
CORTEZ         PTSUNNY   53  33  46 SE16      29.75S
PAGOSA SPRINGS CLOUDY    44  31  62 CALM      29.88S
TELLURIDE      LGT SNOW  34  31  89 SE5       29.85S WCI  30
WOLF CREEK PAS NOT AVBL
$$

COZ009-010-012-014-032>034-037-058>063-281600-
...CENTRAL COLORADO...

CITY           SKY/WX    TMP DP  RH WIND       PRES   REMARKS
ASPEN          PTSUNNY   38  30  73 N6        29.75F
BUENA VISTA    LGT SNOW  32  30  94 SE3       29.91R VSB 3/4
COPPER MTN     NOT AVBL
BERTHOUD PASS  CLOUDY    18   7  62 E30       29.90S WCI  -2
COTTONWOOD PAS LGT SNOW  30  28  93 E12G17    29.90R VSB 3/4 WCI  21
GUNNISON       FAIR      46  28  49 SE15G23   29.81S
KREMMLING      PTSUNNY   34  30  86 CALM      29.84S
LEADVILLE      CLOUDY    27  26  96 S13       29.85R WCI  16
MONARCH PASS   LGT SNOW  27  23  86 W12G21    30.03R VSB 1   WCI  16
SALIDA         CLOUDY    33  31  91 SE13G18   29.98R WCI  24
SUNLIGHT       LGT SNOW  32  30  93 CALM      29.86S VSB 3/4
WILKERSON PASS CLOUDY   N/A N/A N/A S8        29.95S FOG
$$

COZ069>075-281600-
...SAN LUIS VALLEY/SANGRE DE CRISTO MOUNTAINS...

CITY           SKY/WX    TMP DP  RH WIND       PRES   REMARKS
ALAMOSA        CLOUDY    43  34  70 S14       29.87S
LA VETA PASS   SNOW      30  28  93 MISG      29.95S VSB 1/2
SAGUACHE       CLOUDY    41  36  81 S14       29.88R
$$

COZ035-036-038>040-281600-
...NORTHERN COLORADO FRONT RANGE...

CITY           SKY/WX    TMP DP  RH WIND       PRES   REMARKS
DENVER INTL AP CLOUDY    37  26  64 E8        29.97R
DMNS CITY PARK   N/A     37  26  63 MISG      29.97S
AURORA         CLOUDY    36  28  73 E8        29.98R
FRONT RANGE AP CLOUDY    36  28  75 E8        29.98R
ERIE MUNI ARPT CLOUDY    38  29  71 E9        29.98R
BOULDER MUN AP CLOUDY    36  30  80 S5        29.97R
CENTENNIAL     LGT SNOW  34  29  82 E12       29.96R FOG     WCI  25
BROOMFIELD     CLOUDY    37  28  70 E8        29.97R
FORT COLLINS   CLOUDY    37  28  70 SE7       29.99R
LONGMONT       CLOUDY    40  31  68 SE7       30.00R
$$

COZ041-046-047-076>085-087-088-281600-
...PIKES PEAK/PALMER DIVIDE AND SOUTHERN FOOTHILLS...

CITY           SKY/WX    TMP DP  RH WIND       PRES   REMARKS
COLO. SPRINGS  SNOW      32  30  92 SE12      29.98R VSB 1/2 WCI  23
A. F. ACADEMY  LGT SNOW  32  32 100 SE14      29.95R FOG     WCI  22
SCHRIEVER AFB  NOT AVBL
ELLICOTT       NOT AVBL
FALCON         LGT SNOW  31  30  95 SE10      29.97S WCI  23
FORT CARSON    SNOW      32  31  98 S10       29.97S VSB 1/2 WCI  24
LIMON          CLOUDY    36  26  67 NE7       29.99R
MONUMENT HILL  CLOUDY    32  28  86 SE9       29.96R WCI  24
TRINIDAD       CLOUDY    42  31  64 E8        29.95R
$$

COZ042>045-048>051-090-091-281600-
...NORTHEAST COLORADO...

CITY           SKY/WX    TMP DP  RH WIND       PRES   REMARKS
GREELEY ARPT   CLOUDY    37  30  75 E7        30.00R
AKRON          CLOUDY    35  28  75 NE10      30.00R WCI  27
BURLINGTON     CLOUDY    39  30  70 N13       29.99S
WRAY           NOT AVBL
STERLING       CLOUDY    37  32  81 NE6       30.00S
HOLYOKE        NOT AVBL
FORT MORGAN    CLOUDY    38  30  73 NE5       30.00S
$$

COZ086-089-092>099-281600-
...SOUTHEAST COLORADO...

CITY           SKY/WX    TMP DP  RH WIND       PRES   REMARKS
PUEBLO         CLOUDY    41  32  70 NE8       29.99R
LA JUNTA       CLOUDY    43  29  57 E10       29.99R
LAMAR          CLOUDY    44  31  60 NE9       29.98S
SPRINGFIELD      N/A     40  31  70 NE13      30.00R
$$




USA.gov is the U.S. government's official web portal to all federal, state and local government web resources and services.